DTA579 FNLU-FYWH

Flight info

Callsign DTA579
Flight time N/A
Altitude 37000
Route ARGOL UT942 UVAMO UN187 EVAGU UM429 OTAVI UT943 VEDRY
Aircraft B737/M-SDE2E3FGHIRWXY/LB1

Departure

Time 2026-05-01 11:46
Airport Quatro de Fevereiro International Airport (FNLU)

Arrival

Time N/A
Airport Hosea Kutako International Airport (FYWH)
Time Latitude Longitude Altitude Speed Heading
2026-05-01 11:39 -8.84655 13.24175 258 ft 8 kts 246°
2026-05-01 11:39 -8.84692 13.24092 258 ft 10 kts 246°
2026-05-01 11:40 -8.84709 13.24049 258 ft 10 kts 248°
2026-05-01 11:40 -8.84735 13.23985 258 ft 10 kts 247°
2026-05-01 11:40 -8.84761 13.23924 258 ft 9 kts 246°
2026-05-01 11:40 -8.84786 13.23864 258 ft 9 kts 246°
2026-05-01 11:41 -8.84810 13.23806 258 ft 9 kts 248°
2026-05-01 11:41 -8.84834 13.23749 258 ft 9 kts 247°
2026-05-01 11:41 -8.84858 13.23694 258 ft 8 kts 246°
2026-05-01 11:41 -8.84880 13.23640 258 ft 8 kts 247°
2026-05-01 11:42 -8.84901 13.23589 258 ft 8 kts 248°
2026-05-01 11:42 -8.84923 13.23538 258 ft 8 kts 246°
2026-05-01 11:42 -8.84958 13.23505 258 ft 7 kts 179°
2026-05-01 11:42 -8.85006 13.23523 258 ft 7 kts 157°
2026-05-01 11:43 -8.85052 13.23542 258 ft 7 kts 158°
2026-05-01 11:43 -8.85097 13.23560 257 ft 7 kts 157°
2026-05-01 11:43 -8.85145 13.23586 257 ft 8 kts 144°
2026-05-01 11:44 -8.85229 13.23665 258 ft 8 kts 137°
2026-05-01 11:44 -8.85269 13.23702 258 ft 8 kts 137°
2026-05-01 11:44 -8.85307 13.23738 258 ft 7 kts 137°
2026-05-01 11:44 -8.85344 13.23773 258 ft 7 kts 136°
2026-05-01 11:45 -8.85382 13.23805 258 ft 7 kts 149°
2026-05-01 11:45 -8.85427 13.23798 258 ft 7 kts 216°
2026-05-01 11:45 -8.85446 13.23778 257 ft 1 kts 227°
2026-05-01 11:45 -8.85457 13.23766 257 ft 11 kts 227°
2026-05-01 11:46 -8.85677 13.23531 259 ft 81 kts 226°
2026-05-01 11:46 -8.86217 13.22957 257 ft 141 kts 226°
2026-05-01 11:46 -8.86989 13.22135 423 ft 173 kts 226°
2026-05-01 11:46 -8.87789 13.21289 1251 ft 161 kts 225°
2026-05-01 11:47 -8.88581 13.20456 1822 ft 168 kts 225°
2026-05-01 11:47 -8.89420 13.19570 2302 ft 186 kts 225°
2026-05-01 11:47 -8.90533 13.18768 2603 ft 210 kts 196°
2026-05-01 11:47 -8.92061 13.18798 2796 ft 237 kts 162°
2026-05-01 11:48 -8.93687 13.19436 3112 ft 261 kts 158°
2026-05-01 11:48 -8.95385 13.20133 3902 ft 263 kts 158°
2026-05-01 11:48 -8.97109 13.20825 4650 ft 270 kts 158°
2026-05-01 11:48 -8.98856 13.21503 5387 ft 275 kts 158°
2026-05-01 11:49 -9.00661 13.22187 6159 ft 279 kts 159°
2026-05-01 11:49 -9.02500 13.22870 6926 ft 283 kts 159°
2026-05-01 11:49 -9.04357 13.23551 7764 ft 285 kts 159°
2026-05-01 11:49 -9.06226 13.24228 8643 ft 287 kts 159°
2026-05-01 11:50 -9.08115 13.24908 9527 ft 289 kts 159°
2026-05-01 11:50 -9.10027 13.25594 10335 ft 296 kts 159°
2026-05-01 11:50 -9.12049 13.26317 10618 ft 321 kts 159°
2026-05-01 11:50 -9.14226 13.27094 11005 ft 339 kts 160°
2026-05-01 11:51 -9.16481 13.27896 11699 ft 345 kts 160°
2026-05-01 11:51 -9.18756 13.28704 12493 ft 349 kts 159°
2026-05-01 11:51 -9.21062 13.29522 13276 ft 353 kts 159°
2026-05-01 11:51 -9.23404 13.30353 14002 ft 358 kts 159°
2026-05-01 11:52 -9.25772 13.31194 14727 ft 361 kts 159°
2026-05-01 11:52 -9.28121 13.32027 15461 ft 364 kts 159°
2026-05-01 11:52 -9.30520 13.32878 16192 ft 367 kts 159°
2026-05-01 11:52 -9.32947 13.33739 16898 ft 371 kts 159°
2026-05-01 11:53 -9.35392 13.34607 17598 ft 374 kts 159°
2026-05-01 11:53 -9.37863 13.35485 18259 ft 378 kts 159°
2026-05-01 11:53 -9.40356 13.36370 18845 ft 381 kts 160°
2026-05-01 11:53 -9.42868 13.37262 19437 ft 384 kts 160°
2026-05-01 11:54 -9.45397 13.38160 20030 ft 386 kts 160°
2026-05-01 11:54 -9.47951 13.39067 20586 ft 389 kts 160°
2026-05-01 11:54 -9.50517 13.39979 21145 ft 392 kts 160°
2026-05-01 11:54 -9.53105 13.40898 21688 ft 396 kts 161°
2026-05-01 11:55 -9.55715 13.41826 22208 ft 399 kts 161°
2026-05-01 11:55 -9.58347 13.42761 22709 ft 403 kts 161°
2026-05-01 11:55 -9.61012 13.43708 23140 ft 408 kts 161°
2026-05-01 11:55 -9.63663 13.44651 23617 ft 410 kts 162°
2026-05-01 11:56 -9.66363 13.45611 24044 ft 412 kts 162°
2026-05-01 11:56 -9.69076 13.46576 24467 ft 414 kts 162°
2026-05-01 11:56 -9.71802 13.47546 24873 ft 416 kts 162°
2026-05-01 11:56 -9.74542 13.48522 25281 ft 419 kts 162°
2026-05-01 11:57 -9.77299 13.49503 25677 ft 421 kts 161°
2026-05-01 11:57 -9.80074 13.50491 26092 ft 423 kts 161°
2026-05-01 11:57 -9.82856 13.51481 26486 ft 425 kts 161°
2026-05-01 11:57 -9.85658 13.52479 26864 ft 427 kts 161°
2026-05-01 11:58 -9.88471 13.53481 27227 ft 430 kts 161°
2026-05-01 11:58 -9.91299 13.54489 27602 ft 432 kts 161°
2026-05-01 11:58 -9.97012 13.56525 28238 ft 439 kts 162°
2026-05-01 11:59 -9.99906 13.57556 28594 ft 441 kts 162°
2026-05-01 11:59 -10.02804 13.58590 28968 ft 442 kts 162°
2026-05-01 11:59 -10.05713 13.59628 29318 ft 444 kts 162°
2026-05-01 12:00 -10.11537 13.61705 29957 ft 449 kts 162°
2026-05-01 12:00 -10.14498 13.62731 30225 ft 451 kts 163°
2026-05-01 12:00 -10.20533 13.64555 30741 ft 454 kts 165°
2026-05-01 12:01 -10.23581 13.65433 30993 ft 456 kts 165°
2026-05-01 12:01 -10.26649 13.66319 31257 ft 458 kts 165°
2026-05-01 12:01 -10.29703 13.67210 31606 ft 457 kts 165°
2026-05-01 12:01 -10.32762 13.68110 32003 ft 456 kts 164°
2026-05-01 12:02 -10.35805 13.69011 32387 ft 455 kts 164°
2026-05-01 12:02 -10.38839 13.69913 32758 ft 455 kts 164°
2026-05-01 12:02 -10.41875 13.70817 33152 ft 453 kts 164°
2026-05-01 12:02 -10.44886 13.71713 33717 ft 449 kts 164°
2026-05-01 12:03 -10.47892 13.72608 34079 ft 449 kts 164°
2026-05-01 12:03 -10.50888 13.73500 34414 ft 449 kts 164°
2026-05-01 12:03 -10.53843 13.74380 34709 ft 449 kts 164°
2026-05-01 12:03 -10.56835 13.75271 35091 ft 446 kts 164°
2026-05-01 12:04 -10.59853 13.76170 35401 ft 446 kts 164°
2026-05-01 12:04 -10.62803 13.77048 35607 ft 448 kts 164°
2026-05-01 12:04 -10.65781 13.77936 36034 ft 445 kts 164°
2026-05-01 12:04 -10.68754 13.78822 36254 ft 446 kts 164°
2026-05-01 12:05 -10.71735 13.79710 36514 ft 446 kts 164°
2026-05-01 12:05 -10.77687 13.81484 37082 ft 445 kts 164°
2026-05-01 12:05 -10.80659 13.82365 37333 ft 445 kts 164°
2026-05-01 12:06 -10.83634 13.83243 37606 ft 444 kts 165°
2026-05-01 12:06 -10.86594 13.84115 37936 ft 442 kts 164°
2026-05-01 12:06 -10.89544 13.84984 38219 ft 441 kts 164°
2026-05-01 12:06 -10.92483 13.85850 38529 ft 439 kts 164°
2026-05-01 12:07 -10.95420 13.86716 38660 ft 441 kts 164°
2026-05-01 12:07 -10.98373 13.87588 38789 ft 442 kts 164°
2026-05-01 12:07 -11.01324 13.88459 38967 ft 442 kts 164°
2026-05-01 12:07 -11.04298 13.89338 38950 ft 446 kts 165°
2026-05-01 12:08 -11.10211 13.91085 38954 ft 444 kts 164°
2026-05-01 12:08 -11.16119 13.92833 38954 ft 441 kts 164°
2026-05-01 12:09 -11.21989 13.94569 38958 ft 438 kts 164°
2026-05-01 12:09 -11.27828 13.96297 38972 ft 436 kts 164°
2026-05-01 12:10 -11.36568 13.98885 38969 ft 435 kts 164°
2026-05-01 12:11 -11.45315 14.01476 38978 ft 438 kts 164°
2026-05-01 12:11 -11.51143 14.03204 38981 ft 440 kts 165°
2026-05-01 12:12 -11.57047 14.04955 38982 ft 443 kts 164°
2026-05-01 12:12 -11.62976 14.06714 38980 ft 445 kts 164°
2026-05-01 12:13 -11.68927 14.08481 38988 ft 446 kts 164°
2026-05-01 12:13 -11.74896 14.10253 38990 ft 447 kts 165°
2026-05-01 12:14 -11.80837 14.12019 38992 ft 448 kts 165°
2026-05-01 12:14 -11.86836 14.13802 38992 ft 448 kts 165°
2026-05-01 12:15 -11.92821 14.15582 38990 ft 447 kts 165°
2026-05-01 12:15 -11.98787 14.17357 38997 ft 446 kts 165°
2026-05-01 12:16 -12.04737 14.19128 39006 ft 444 kts 165°
2026-05-01 12:16 -12.10657 14.20891 39000 ft 442 kts 165°
2026-05-01 12:17 -12.16528 14.22640 38999 ft 441 kts 165°
2026-05-01 12:17 -12.22423 14.24397 39012 ft 441 kts 165°
2026-05-01 12:18 -12.28321 14.26156 39017 ft 442 kts 165°
2026-05-01 12:18 -12.34232 14.27919 39015 ft 443 kts 165°
2026-05-01 12:19 -12.40159 14.29688 39012 ft 444 kts 165°
2026-05-01 12:19 -12.46107 14.31465 39012 ft 445 kts 165°
2026-05-01 12:20 -12.52063 14.33244 39010 ft 446 kts 165°
2026-05-01 12:20 -12.58036 14.35030 38999 ft 447 kts 165°
2026-05-01 12:21 -12.64007 14.36816 39016 ft 447 kts 165°
2026-05-01 12:21 -12.69958 14.38596 38998 ft 449 kts 165°
2026-05-01 12:22 -12.75951 14.40392 39010 ft 448 kts 166°
2026-05-01 12:22 -12.81928 14.42184 38993 ft 446 kts 166°
2026-05-01 12:23 -12.87863 14.43964 38990 ft 444 kts 166°
2026-05-01 12:23 -12.93784 14.45742 38991 ft 442 kts 166°
2026-05-01 12:24 -12.99683 14.47513 38984 ft 440 kts 166°
2026-05-01 12:24 -13.05552 14.49276 38987 ft 439 kts 166°
2026-05-01 12:25 -13.14298 14.51905 39006 ft 438 kts 166°
2026-05-01 12:26 -13.20181 14.53675 39003 ft 438 kts 166°
2026-05-01 12:26 -13.28924 14.56306 39004 ft 439 kts 166°
2026-05-01 12:27 -13.37734 14.58960 39009 ft 440 kts 166°
2026-05-01 12:28 -13.45572 14.61323 39014 ft 441 kts 166°
2026-05-01 12:29 -13.54437 14.63997 39010 ft 443 kts 166°
2026-05-01 12:29 -13.63336 14.66684 39015 ft 444 kts 166°
2026-05-01 12:30 -13.72220 14.69368 39014 ft 444 kts 166°
2026-05-01 12:31 -13.78103 14.71147 39021 ft 444 kts 166°
2026-05-01 12:31 -13.84041 14.72943 39009 ft 444 kts 166°
2026-05-01 12:32 -13.89959 14.74734 39017 ft 444 kts 166°
2026-05-01 12:32 -13.98846 14.77426 38995 ft 444 kts 166°
2026-05-01 12:33 -14.04771 14.79222 38987 ft 444 kts 166°
2026-05-01 12:33 -14.10702 14.81020 38976 ft 444 kts 166°
2026-05-01 12:34 -14.16622 14.82816 38985 ft 444 kts 166°
2026-05-01 12:34 -14.22553 14.84616 38972 ft 444 kts 166°
2026-05-01 12:35 -14.28487 14.86419 38979 ft 445 kts 166°
2026-05-01 12:35 -14.34426 14.88224 38972 ft 445 kts 166°
2026-05-01 12:36 -14.40335 14.90020 38969 ft 445 kts 166°
2026-05-01 12:36 -14.46279 14.91829 38973 ft 445 kts 166°
2026-05-01 12:37 -14.52235 14.93642 38954 ft 446 kts 166°
2026-05-01 12:37 -14.58188 14.95455 38956 ft 446 kts 166°
2026-05-01 12:38 -14.64146 14.97270 38959 ft 446 kts 166°
2026-05-01 12:38 -14.70108 14.99089 38958 ft 447 kts 166°
2026-05-01 12:39 -14.76076 15.00909 38956 ft 447 kts 166°
2026-05-01 12:39 -14.82041 15.02730 38973 ft 447 kts 166°
2026-05-01 12:40 -14.87982 15.04545 38961 ft 448 kts 166°
2026-05-01 12:40 -14.93956 15.06371 38960 ft 448 kts 166°
2026-05-01 12:41 -14.99928 15.08197 38948 ft 448 kts 166°
2026-05-01 12:41 -15.05900 15.10024 38959 ft 447 kts 166°
2026-05-01 12:42 -15.11872 15.11853 38960 ft 447 kts 166°
2026-05-01 12:42 -15.17841 15.13681 38949 ft 447 kts 167°
2026-05-01 12:43 -15.23810 15.15511 38950 ft 447 kts 167°
2026-05-01 12:43 -15.29784 15.17343 38952 ft 447 kts 167°
2026-05-01 12:44 -15.35713 15.19162 38942 ft 447 kts 167°
2026-05-01 12:45 -15.47649 15.22828 38941 ft 447 kts 167°
2026-05-01 12:45 -15.53624 15.24665 38941 ft 448 kts 167°
2026-05-01 12:46 -15.59607 15.26506 38950 ft 449 kts 167°
2026-05-01 12:46 -15.65604 15.28351 38944 ft 450 kts 167°
2026-05-01 12:47 -15.71611 15.30202 38940 ft 451 kts 167°
2026-05-01 12:47 -15.77627 15.32056 38936 ft 451 kts 167°
2026-05-01 12:48 -15.83648 15.33912 38933 ft 452 kts 167°
2026-05-01 12:48 -15.89645 15.35763 38940 ft 452 kts 167°
2026-05-01 12:49 -15.95689 15.37629 38939 ft 453 kts 167°
2026-05-01 12:49 -16.01727 15.39494 38938 ft 453 kts 167°
2026-05-01 12:50 -16.07775 15.41364 38940 ft 453 kts 167°
2026-05-01 12:50 -16.13823 15.43236 38949 ft 454 kts 168°
2026-05-01 12:51 -16.19881 15.45111 38938 ft 454 kts 168°
2026-05-01 12:52 -16.28946 15.47919 38941 ft 453 kts 168°
2026-05-01 12:52 -16.38016 15.50731 38939 ft 453 kts 168°
2026-05-01 12:53 -16.47041 15.53533 38958 ft 452 kts 168°
2026-05-01 12:54 -16.53074 15.55407 38942 ft 452 kts 168°
2026-05-01 12:54 -16.62116 15.58218 38940 ft 452 kts 168°
2026-05-01 12:55 -16.71153 15.61031 38943 ft 451 kts 168°
2026-05-01 12:56 -16.77166 15.62903 38945 ft 451 kts 168°
2026-05-01 12:56 -16.83149 15.64768 38942 ft 451 kts 168°
2026-05-01 12:57 -16.89175 15.66647 39068 ft 452 kts 168°
2026-05-01 12:57 -16.98212 15.69468 39105 ft 452 kts 168°
2026-05-01 12:58 -17.04257 15.71356 39103 ft 453 kts 168°
2026-05-01 12:59 -17.13333 15.74194 39103 ft 454 kts 168°
2026-05-01 12:59 -17.22386 15.77028 39045 ft 455 kts 168°
2026-05-01 13:00 -17.31504 15.79885 38990 ft 456 kts 168°
2026-05-01 13:01 -17.40521 15.83141 38949 ft 464 kts 155°
2026-05-01 13:02 -17.48684 15.88735 38959 ft 469 kts 150°